Showing default

GLOBALSTAR M026, 25873

Orbit data source: Space-Track

GLOBALSTAR M026, 25873 is a payload satellite owned by Globalstar (US) in LEO that was launched on Sun, 25 Jul 1999 UTC via a DELTA 7420-10C launch vehicle from the Air Force Eastern Test Range (AFETR). Payload-class satellites include a variety of spacecraft equipped with specific instruments for various scientific and technological missions. These include communications satellites like Starlink; space stations such as the ISS; scientific satellites like the Hubble; Earth observation satellites from companies like Planet Labs, Umbra, and HawkEye 360; GPS; miniature CubeSats for education and research; and military/defense satellites.

Loading next visibility...
Identifier
25873, 1999-041B
Orbit
LEO
Country
Flag of UnknownUnknown / GLOB
Related business
Manufacturer
SS/Loral
Mission
Non-operational Commercial Communications
Bus & Motor
LS-400, LS-400 AOCS
Mass
450 kg wet, 380 kg dry
Launch date (UTC)
1999-07-25 (26 years ago)
Launch vehicle
DELTA 7420-10C
Launch site
Air Force Eastern Test Range (AFETR)
Object type
Payload
Rocket body
Debris
Shape & HBR
Box + 2 Pan, 6.0 m
Radar Cross Section
5.587 m², Large (>1 m²)

Expand to show TLE details & history
Last TLE update: 19 hours ago

TLE from 19 hours ago
0 GLOBALSTAR M026
1 25873U 99041B   25260.16532925  .00000033  00000-0  35738-2 0  9990
2 25873  52.0041 326.8383 0001809  72.4723 310.0223 11.06850632158675
Epoch: 2025-09-17T03:58Z
TLE epoch observation values (Epoch: 2025-09-17T03:58:04.447Z)
Latitude
17.56108°
Longitude
-74.77923°
Altitude
2,125.984 km
Speed
6.85 km/s
True Right ascension
22h 44m 20s
True Declination
17° 28' 42"
Sunlit
Object was in full shadow at epoch
Visualization orbit readout
Latitude
Unknown
Longitude
Unknown
Altitude
Unknown
Speed
Unknown
Apparent Right ascension
Unknown
Apparent Declination
Unknown
Sunlit
N/A
Visualization observer readout
Local Sidereal Time
15:31:29
Azimuth
Unknown
Elevation
Unknown
Doppler factor
Unknown
Orbital elements
Apogee altitude
2,128.791 km
Perigee altitude
2,125.714 km
Semi-major axis
8,505.389 km
Eccentricity
0.00018
Inclination
52.0041°
RAAN
326.8383°
Arg. of periapsis
72.4723°
True anomaly
310.00642°
Mean anomaly
310.0223°
Eccentric anomaly
310.01436°
Mean motion
2.76695 °/min
Orbital period
130.11 mins
BSTAR
0.0035738
Loading maneuver chart data...
Computing Atmospheric mass density...
Loading historical data...
Loading historical data...
Loading historical data...
Loading historical data...
Loading historical data...
Loading historical data...
Loading historical data...
Other satellites on launch #41 in the year 1999 (1999-07-25 UTC)

Documentation

Showing up to 5 results
|